Location: Ba?yaka
(36.3488°N, 30.1112°E)
Time: 23:36:15
(UTC+00:00)

Daily predictions for brighter satellites

Satellite Brightness Start Highest point End
(mag) Time Altitude Azimuth Time Altitude Azimuth Time Altitude Azimuth
CZ-4C R/B 4.5 15:58:22 10° N 16:02:25 50° WNW 16:06:16 10° SSW
SL-4 R/B 3.9 15:59:38 10° NNW 16:02:53 19° NNE 16:06:14 10° ENE
Cosmos 1805 3.2 15:59:30 10° S 16:03:21 73° E 16:07:13 10° N
Cosmos 1626 2.6 16:01:40 10° NNW 16:05:14 63° W 16:08:48 10° S
Cosmos 1242 Rocket 3.0 16:02:34 10° SSW 16:06:05 64° W 16:09:37 10° N
CZ-2C R/B 3.1 16:04:04 10° WSW 16:06:16 18° SSW 16:08:30 10° SSE
Cosmos 2082 3.7 16:02:19 10° NNW 16:08:03 72° ENE 16:13:45 10° SSE
CZ-4 R/B 3.1 16:06:50 10° ESE 16:09:26 16° ENE 16:12:01 10° NNE
Cosmos 2360 Rocket 3.7 16:07:33 10° SE 16:10:15 14° E 16:12:57 10° ENE
CZ-3 Stage 3 2.9 16:06:54 10° WSW 16:10:29 52° S 16:23:44 10° ESE
Cosmos 1809 Rocket 4.4 16:04:52 10° S 16:10:51 67° E 16:16:53 10° NNE
Cosmos 1908 Rocket 4.3 16:09:16 10° SSE 16:13:01 29° E 16:16:46 10° NNE
ISS -2.8 16:12:44 10° NNW 16:15:48 32° NE 16:18:31 12° E
Okean 2 3.7 16:12:35 10° NNW 16:16:44 72° W 16:20:49 10° S
Cosmos 1733 3.7 16:13:31 10° SSW 16:17:13 62° W 16:20:55 10° N
Meteor 2-10 4.2 16:12:56 10° S 16:18:37 84° E 16:24:09 10° N
SL-14 R/B 3.3 16:17:33 10° N 16:21:29 58° E 16:25:26 10° SSE
Cosmos 1766 3.3 16:19:17 10° S 16:23:06 56° E 16:26:57 10° NNE
Cosmos 968 Rocket 3.7 16:19:44 10° S 16:24:46 49° ESE 16:29:48 10° NNE
Cosmos 540 Rocket 3.9 16:19:46 10° NNW 16:24:50 67° WSW 16:29:53 10° S
YAOGAN 1 3.1 16:22:22 10° SE 16:26:18 36° ENE 16:30:16 10° N
USA 229 DEB 4.2 16:19:30 10° NW 16:27:05 77° WSW 16:35:02 10° SSE
USA 229 4.2 16:19:36 10° NW 16:27:11 78° WSW 16:35:08 10° SSE
Nadezhda 4 Rocket 4.1 16:21:10 10° S 16:27:20 59° E 16:33:31 10° NNE
IRIDIUM 106 4.4 16:23:13 10° SSE 16:28:16 54° E 16:33:22 10° NNE
Cosmos 1674 Rocket 3.6 16:24:42 10° N 16:29:05 59° E 16:33:27 10° SSE
Okean O Rocket 2.3 16:26:01 10° SE 16:29:53 32° ENE 16:33:47 10° N
Meteor 1-15 Rocket 4.4 16:25:56 10° SSE 16:31:16 49° E 16:36:36 10° NNE
Lacrosse 4 Rocket 2.1 16:30:01 10° S 16:33:33 30° ESE 16:37:11 10° NE
SAR-Lupe-3 4.5 16:31:27 10° SSE 16:34:59 86° E 16:38:34 10° NNW
Cosmos 2322 Rocket 2.6 16:33:26 10° S 16:38:43 42° ESE 16:44:03 10° NE
BREEZE-M TANK 4.3 16:26:41 10° SSW 16:38:50 36° SSE 16:41:51 19° E
Cosmos 2237 4.5 16:33:46 10° S 16:39:07 44° ESE 16:44:30 10° NE
Cosmos 2285 Rocket 4.3 16:33:55 10° N 16:40:01 46° ENE 16:46:06 10° SE
CZ-4B R/B 3.1 16:38:30 10° SSE 16:43:48 69° ENE 16:49:14 10° N
PSLV R/B 4.0 16:40:35 10° S 16:44:14 67° WSW 16:47:53 10° NNW
Cosmos 1980 Rocket 4.3 16:40:16 10° WSW 16:45:03 28° WNW 16:49:53 10° N
Cosmos 1726 3.2 16:42:50 10° SSW 16:46:20 46° W 16:49:52 10° N
Hubble Space Telescope 3.3 16:46:28 10° SW 16:48:13 12° SSW 16:49:59 10° S
Timation 2 Rocket 3.9 16:43:12 10° NNW 16:49:34 89° ENE 16:55:39 10° SSE
Cosmos 1470 2.9 16:46:17 10° SSE 16:49:56 44° E 16:53:36 10° NNE
ATLAS 5 CENTAUR R/B 4.4 16:09:55 10° WSW 16:51:04 37° S 16:59:46 16° SE
Cosmos 841 Rocket 4.0 16:46:17 10° NNW 16:51:22 61° WSW 16:56:24 10° S
Cosmos 2292 Rocket 3.8 16:46:28 10° S 16:52:10 67° E 16:56:28 10° NNE
SEDSat Delta rocket 4.3 16:47:31 10° W 16:53:12 52° S 16:57:09 22° ESE
ARGOS Delta rocket 4.5 16:49:43 10° N 16:54:49 62° WNW 16:59:37 10° SSW
Cosmos 1378 Rocket 3.9 16:51:19 10° NNW 16:55:39 67° W 16:59:54 10° S
Cosmos 1975 Rocket 4.3 16:53:07 10° NNE 16:55:58 23° ENE 16:55:58 23° ENE
COBE Rocket 4.2 16:59:37 10° S 17:04:28 67° W 17:09:14 10° NNW
Cosmos 1092 Rocket 3.9 17:02:28 10° S 17:08:44 71° E 17:14:59 10° N
SL-16 R/B 2.4 17:03:16 10° SSW 17:08:54 73° WNW 17:14:34 10° NNE
Cosmos 1844 Rocket 3.7 17:06:27 10° N 17:11:14 27° ENE 17:11:18 27° ENE
OAO 3 Copernicus 4.2 17:09:15 10° W 17:14:16 76° S 17:15:45 46° E
Cosmos 1570 Rocket 3.9 17:12:44 10° NNW 17:18:00 74° ENE 17:20:28 32° SSE
Landsat 5 3.4 17:17:55 10° NNE 17:22:23 72° ESE 17:26:44 10° S
BREEZE-M DEB (TANK) 2.8 17:20:22 10° NW 17:22:55 64° NE 17:23:02 63° NE
Cosmos 1437 Rocket 4.4 17:24:16 10° SW 17:27:40 32° WNW 17:31:04 10° NNW
Cosmos 2263 Rocket 3.5 17:25:06 10° NW 17:30:22 39° WSW 17:35:35 10° S
USA 267 3.3 17:27:04 30° SE 17:30:36 80° SW 17:37:11 10° NW
Feng Yun 1-1 Rocket 4.3 17:25:30 10° S 17:31:00 75° WSW 17:36:26 10° NNW
Meteor 1-24 Rocket 3.4 17:26:22 10° N 17:31:43 81° E 17:33:57 37° SSE
OAO 2 Rocket 3.2 17:33:10 10° W 17:38:04 71° S 17:38:10 70° S
Cosmos 1486 Rocket 3.9 17:34:31 10° SSW 17:39:50 87° WNW 17:45:12 10° NNE
Okean-O 3.8 17:42:56 32° N 17:42:56 32° N 17:45:24 10° N
SL-4 R/B 2.4 17:38:21 10° NW 17:42:26 68° NNW 17:42:26 68° NNW
CZ-4 R/B 2.9 17:40:21 11° SSW 17:44:01 36° W 17:47:53 10° NNW
Cosmos 2333 Rocket 3.3 17:39:21 10° S 17:42:08 29° S 17:42:08 29° S
Cosmos 1844 4.5 17:40:21 10° N 17:44:18 36° NNE 17:44:18 36° NNE
Cosmos 2208 Rocket 4.1 17:41:10 10° NNW 17:46:34 78° WSW 17:47:42 56° S
CSL-04 Debris 4.0 17:46:20 70° SSE 17:46:58 87° ENE 17:52:23 10° NNW
ISS -1.2 17:49:44 10° WNW 17:51:29 20° WSW 17:51:29 20° WSW
BREEZE M DEB (TANK) 4.0 17:47:08 10° W 17:52:36 29° NW 17:53:03 28° NNW
Cosmos 2360 Rocket 2.4 17:47:56 10° SSW 17:53:33 68° WNW 17:59:11 10° NNE
USA 81 4.4 17:56:36 10° NNW 18:01:48 61° W 18:02:39 53° SW
Okean O Rocket 4.1 18:03:11 10° SW 18:06:14 19° W 18:09:20 10° NW
Lacrosse 4 Rocket 3.9 18:09:10 10° WSW 18:12:11 20° NW 18:13:56 16° NNW
CSL-04 Rocket 4.1 18:13:27 58° WNW 18:13:27 58° WNW 18:18:20 10° NNW
Cosmos 1553 Rocket 4.3 18:16:26 10° N 18:21:53 65° NNW 18:21:53 65° NNW
Cosmos 2322 Rocket 4.2 18:18:13 10° WSW 18:22:53 25° WNW 18:27:34 10° N
COSMOS 2455 4.4 18:17:50 10° SSW 18:20:06 24° SW 18:20:06 24° SW
BREEZE-M DEB (TANK) 4.5 18:23:07 10° SW 18:29:16 36° WSW 18:29:16 36° WSW
Cosmos 1844 Rocket 4.5 18:49:57 10° NW 18:52:59 28° WNW 18:52:59 28° WNW
